This demonstration page uses our WeatherBlox Daily Observations layout. Learn more.

41.55636, -103.73856

Hourly Observations for May 16, 2018

Temp ( °F °C ) Dew Point ( °F °C ) Humidity (%) Winds ( mph kmh ) Pressure ( in mb ) Visibility ( mi km ) Precip ( " mm )
12:58 am 00:58 Clear 51 10.6 48 8.9 89 89 SW 5 7 30 1016 10 16.0934 N/A
1:58 am 01:58 Clear 51 10.6 48 9.1 91 91 SSW 7 11 29.97 1015 10 16.0934 N/A
2:58 am 02:58 Clear 50 10.2 47 8.2 88 88 SW 14 22 29.97 1015 10 16.0934 N/A
3:58 am 03:58 Clear 51 10.5 47 8.5 88 88 WSW 14 22 29.95 1014 10 16.0934 N/A
4:58 am 04:58 Clear 47 8.4 45 7.2 92 92 W 8 13 29.97 1015 10 16.0934 N/A
5:58 am 05:58 Sunny 51 10.7 45 7.4 80 80 W 13 20 29.96 1015 10 16.0934 0 0
6:58 am 06:58 Sunny 52 11 47 8.4 84 84 W 8 13 29.98 1015 10 16.0934 N/A
7:58 am 07:58 Sunny 58 14.4 51 10.3 77 77 N 6 9 29.98 1015 10 16.0934 N/A
8:58 am 08:58 Sunny 60 15.8 52 10.9 73 73 E 5 7 29.98 1015 10 16.0934 N/A
9:58 am 09:58 Sunny 65 18.3 52 11.1 63 63 Calm 29.97 1015 10 16.0934 N/A
10:58 am 10:58 Sunny 69 20.4 54 12.3 60 60 SE 7 11 29.96 1015 10 16.0934 N/A
11:58 am 11:58 Sunny 72 22 53 11.8 52 52 SE 9 15 29.96 1015 10 16.0934 N/A
12:58 pm 12:58 Sunny 73 22.6 48 9 42 42 S 9 15 29.93 1014 10 16.0934 N/A
1:58 pm 13:58 Sunny 75 24 49 9.3 39 39 SE 9 15 29.91 1013 10 16.0934 N/A
2:58 pm 14:58 Mostly Cloudy 75 24.1 39 3.9 27 27 S 10 17 29.9 1013 10 16.0934 N/A
3:58 pm 15:58 Mostly Sunny 77 25 36 2.4 23 23 SE 10 17 29.89 1012 10 16.0934 N/A
4:58 pm 16:58 Mostly Cloudy 75 24 42 5.3 30 30 NE 17 28 29.89 1012 10 16.0934 N/A
5:58 pm 17:58 Sunny 74 23.4 41 5.1 31 31 E 18 30 29.87 1012 10 16.0934 N/A
6:58 pm 18:58 Sunny 72 22.2 42 5.5 34 34 ESE 13 20 29.86 1011 10 16.0934 N/A
7:58 pm 19:58 Sunny 66 19 46 7.6 48 48 ESE 14 22 29.86 1011 10 16.0934 N/A
8:58 pm 20:58 Clear 62 16.6 48 8.8 60 60 SE 10 17 29.88 1012 10 16.0934 N/A
9:58 pm 21:58 Clear 57 14 48 9 72 72 SE 9 15 29.89 1012 10 16.0934 N/A
10:58 pm 22:58 Clear 55 12.7 47 8.6 76 76 SE 8 13 29.88 1012 10 16.0934 N/A
11:58 pm 23:58 Clear 56 13.6 47 8.5 72 72 SSE 9 15 29.87 1012 10 16.0934 N/A

Powered by AerisWeather